{"data":{"norad_id":54140,"epoch":"2026-05-25T04:04:47.587008Z","epoch_age_seconds":63582,"freshness":"FRESH","line1":"1 54140U 22138AD  26145.16999522  .00000138  00000+0  31306-3 0  9998","line2":"2 54140  87.9160 309.5435 0001744  88.7851 271.3481 13.19726646173775","mean_motion":13.19726646,"eccentricity":0.0001744,"inclination_deg":87.916,"raan_deg":309.5435,"arg_perigee_deg":88.7851,"mean_anomaly_deg":271.3481,"bstar":0.00031306,"rev_number":17377,"period_min":109.11350500989,"perigee_km":1184.4451183382,"apogee_km":1187.0834070986,"semimajor_km":7563.9012627184,"source":"CELESTRAK","updated_at":"2026-05-25T13:38:22.590508Z"}}